7 * 24
多渠道服务支持
STARLINK-32377 是 SpaceX Starlink 卫星互联网项目中的一颗低轨卫星,属于第二批部署的星链卫星群。该卫星于2022年发射,运行在约550公里高度的近地轨道,旨在为全球用户提供高速互联网服务。它采用先进的推进系统和激光通信技术,提高网络稳定性和数据传输效率。作为 Starlink 计划的一部分,该卫星支持偏远地区的网络接入,并增强整体星座的覆盖能力与冗余性。
  
                美国
                (US)
                | 数据来源 | 国际轨道数据 | 
| 星历时间: | 2025-11-02T18:02:55+0800 1天前 查看轨道信息 | 
| 半长轴: | 6853.388km | 
| 偏心率: | 0.0001364 | 
| 轨道倾角: | 53.160° | 
| 近地点辐角 | 92.475° | 
| 升交点赤经 | 358.106° | 
| 平近点角 | 267.641° | 
| 近地点: | 474.318km | 
| 远地点: | 476.188km | 
| 周期: | 94.106分钟 | 
| 每日圈数: | 15.301882 |